EW4415 Weather Reports


Display with metric or nautical units.
time (UTC)temp
F
wind
direction
speed
MPH
gust
MPH
rain 1hr
in
rain 24hr
in
rain mn
in
humidity
%
barometer
mb
20260903174510 55 327 0.0 4.0 0.00 0.00 0.00 15 1005.0
20260903173006 56 219 0.0 1.0 0.00 0.00 0.00 23 1005.1
20260903171509 56 234 0.0 2.0 0.00 0.00 0.00 25 1005.1
20260903170107 57 289 0.0 2.0 0.00 0.00 0.00 20 1005.1
20260903164558 57 348 0.0 5.0 0.00 0.00 0.00 26 1005.0
20260903163102 58 360 0.0 4.0 0.00 0.00 0.00 36 1005.0
20260903161548 58 97 0.0 5.0 0.00 0.00 0.00 34 1005.0
20260903160040 59 300 0.0 6.0 0.00 0.00 0.00 40 1004.9
20260903154524 59 92 0.0 12.0 0.00 0.00 0.00 42 1004.9
20260903153020 60 321 0.0 6.0 0.00 0.00 0.00 44 1004.9
20260903151516 60 25 0.0 9.0 0.00 0.00 0.00 47 1004.9
20260903150011 61 242 1.0 10.0 0.00 0.00 0.00 50 1004.9
20260903144507 61 338 0.0 10.0 0.00 0.00 0.00 47 1005.0
20260903143002 61 73 0.0 7.0 0.00 0.00 0.00 45 1005.0
20260903141601 61 19 1.0 11.0 0.00 0.00 0.00 50 1005.0
20260903140055 62 71 1.0 8.0 0.00 0.00 0.00 55 1005.0
20260903134550 62 92 0.0 10.0 0.00 0.00 0.00 59 1005.0
20260903133046 63 260 0.0 10.0 0.00 0.00 0.00 59 1004.9
20260903131543 62 148 2.0 13.0 0.00 0.00 0.00 59 1004.9
20260903130038 63 355 0.0 12.0 0.00 0.00 0.00 60 1005.0
20260903124533 63 98 1.0 14.0 0.00 0.00 0.00 60 1005.1
20260903123033 63 348 0.0 7.0 0.00 0.00 0.00 60 1005.1
20260903121524 63 285 1.0 12.0 0.00 0.00 0.00 60 1005.1
20260903120020 63 65 0.0 9.0 0.00 0.00 0.00 59 1005.2
20260903114519 63 206 1.0 11.0 0.00 0.00 0.00 58 1005.1
20260903113012 63 39 1.0 10.0 0.00 0.00 0.00 60 1005.3
20260903111507 64 243 1.0 10.0 0.00 0.00 0.00 60 1005.2
20260903110004 64 54 0.0 9.0 0.00 0.00 0.00 60 1005.2
20260903104615 64 43 0.0 8.0 0.00 0.00 0.00 59 1005.4
20260903103104 63 148 0.0 7.0 0.00 0.00 0.00 58 1005.4
20260903101551 62 9 0.0 15.0 0.00 0.00 0.00 58 1005.5
20260903100046 63 285 0.0 8.0 0.00 0.00 0.00 55 1005.6
20260903094544 62 82 0.0 9.0 0.00 0.00 0.00 48 1005.6
20260903093101 62 279 0.0 12.0 0.00 0.00 0.00 57 1005.7
20260903091534 63 325 0.0 8.0 0.00 0.00 0.00 52 1005.7
20260903090030 63 34 0.0 6.0 0.00 0.00 0.00 49 1005.7
20260903084523 62 302 0.0 7.0 0.00 0.00 0.00 36 1005.8
20260903083020 61 23 0.0 9.0 0.00 0.00 0.00 27 1005.9
20260903081527 61 307 1.0 7.0 0.00 0.00 0.00 25 1006.0
20260903080010 62 9 0.0 6.0 0.00 0.00 0.00 1 1006.0
20260903074505 62 54 0.0 7.0 0.00 0.00 0.00 1 1006.0
20260903073001 61 38 0.0 4.0 0.00 0.00 0.00 1 1006.0
20260903071626 61 321 0.0 2.0 0.00 0.00 0.00 1 1006.0
20260903064547 60 322 0.0 0.0 0.00 0.00 0.00 1 1006.0
20260903063043 60 310 0.0 0.0 0.00 0.00 0.00 1 1006.0
20260903061539 59 283 0.0 0.0 0.00 0.00 0.00 1 1006.0
20260903060034 59 78 0.0 2.0 0.00 0.00 0.00 1 1005.9
20260903054537 59 82 0.0 3.0 0.00 0.00 0.00 1 1006.0
20260903053028 59 66 0.0 1.0 0.00 0.00 0.00 1 1006.0
20260903051524 58 65 0.0 1.0 0.00 0.00 0.00 1 1006.0
20260903050018 58 315 0.0 0.0 0.00 0.00 0.00 1 1006.0
20260903044513 58 94 0.0 0.0 0.00 0.00 0.00 1 1006.1
20260903043015 58 75 0.0 1.0 0.00 0.00 0.00 1 1006.1
20260903041513 58 113 0.0 1.0 0.00 0.00 0.00 1 1006.1
20260903040109 57 19 0.0 0.0 0.00 0.00 0.00 1 1006.1
20260903034606 58 46 0.0 0.0 0.00 0.00 0.00 1 1006.2
20260903033052 57 340 0.0 3.0 0.00 0.00 0.00 1 1006.2
20260903031547 57 299 0.0 3.0 0.00 0.00 0.00 1 1006.3
20260903030043 55 92 0.0 0.0 0.00 0.00 0.00 1 1006.2
20260903024541 54 303 0.0 0.0 0.00 0.00 0.00 1 1006.3
20260903023040 51 281 0.0 0.0 0.00 0.00 0.00 1 1006.4
20260903021530 51 281 0.0 0.0 0.00 0.00 0.00 1 1006.5
20260903020025 50 281 0.0 0.0 0.00 0.00 0.00 1 1006.6
20260903014523 50 281 0.0 0.0 0.00 0.00 0.00 1 1006.7
20260903013019 50 281 0.0 0.0 0.00 0.00 0.00 1 1006.8
20260903011521 50 281 0.0 0.0 0.00 0.00 0.00 1 1006.8
20260903010009 50 281 0.0 0.0 0.00 0.00 0.00 1 1006.9
20260903004504 50 281 0.0 0.0 0.00 0.00 0.00 1 1007.0
20260903003114 51 281 0.0 0.0 0.00 0.00 0.00 1 1007.0
20260903001556 51 281 0.0 0.0 0.00 0.00 0.00 1 1007.1
20260903000100 52 281 0.0 0.0 0.00 0.00 0.00 1 1007.3
20260902234548 52 281 0.0 0.0 0.00 0.00 0.00 1 1007.3
20260902233044 53 281 0.0 0.0 0.00 0.00 0.00 1 1007.4
20260902231544 53 281 0.0 0.0 0.00 0.00 0.00 1 1007.3
20260902230034 54 281 0.0 0.0 0.00 0.00 0.00 1 1007.4
20260902224531 54 281 0.0 0.0 0.00 0.00 0.00 1 1007.3
20260902223025 54 281 0.0 0.0 0.00 0.00 0.00 1 1007.5
20260902221521 55 281 0.0 0.0 0.00 0.00 0.00 1 1007.5
20260902220016 55 277 0.0 0.0 0.00 0.00 0.00 1 1007.6
20260902214518 55 276 0.0 0.0 0.00 0.00 0.00 1 1007.7
20260902213007 54 275 0.0 0.0 0.00 0.00 0.00 1 1007.7
20260902211507 54 273 0.0 0.0 0.00 0.00 0.00 1 1007.7
20260902210059 54 273 0.0 0.0 0.00 0.00 0.00 1 1007.6
20260902204607 54 273 0.0 0.0 0.00 0.00 0.00 1 1007.7
20260902203058 54 273 0.0 0.0 0.00 0.00 0.00 1 1007.7
20260902201616 54 273 0.0 0.0 0.00 0.00 0.00 1 1007.6
20260902200051 55 273 0.0 0.0 0.00 0.00 0.00 1 1007.7
20260902194550 55 273 0.0 0.0 0.00 0.00 0.00 1 1007.7
20260902193042 55 273 0.0 0.0 0.00 0.00 0.00 1 1007.6
20260902191538 55 273 0.0 0.0 0.00 0.00 0.00 1 1007.7
20260902190033 55 273 0.0 0.0 0.00 0.00 0.00 1 1007.8
20260902184529 56 273 0.0 0.0 0.00 0.00 0.00 1 1007.7
20260902183025 56 273 0.0 0.0 0.00 0.00 0.00 1 1007.7
20260902181523 56 273 0.0 0.0 0.00 0.00 0.00 1 1007.8
20260902180122 57 273 0.0 0.0 0.00 0.00 0.00 1 1007.8